Flag for Belarus Weather past 2 weeks in Barysaw, Belarus

Now
86 °F

Passing clouds.


Feels Like: 84 °F
Forecast: 58 / 76 °F
Wind: 6 mph from South

Location: Minsk

Current Time: Jul 6, 2015 at 7:38:30 PM

Latest Report: Jul 6, 2015 at 7:00 PM


Visibility: N/A

Pressure: 29.83 "Hg

Humidity: 31%

Dew point: 52 °F

Location of BarysawLocation

Historic Weather in Barysaw — Graph

°F

Barysaw temperature yesterday

Maximum temperature yesterday: 88 °F (at 3:00 PM)
Minimum temperature yesterday: 57 °F (at 4:30 AM)
Average temperature yesterday: 75 °F

Past Weeks' High & Low Weather Summary

 TemperatureHumidityPressure
High88 °F (Jul 4, 4:30 PM)100% (Jun 22, 12:00 AM)30.42 "Hg (Jun 22, 12:00 AM)
Low45 °F (Jun 23, 3:00 AM)24% (Jul 3, 11:30 AM)29.83 "Hg (Jun 21, 6:00 PM)
Average64 °F60%30.06 "Hg
* Reported Jun 21 6:00 PM — Jul 6 6:30 PM, Barysaw, Weather by CustomWeather, © 2015

Note: Actual official high and low records may vary slightly from our data, if they occured in-between our weather recording intervals... More about our weather records

Advertising

Barysaw weather history for previous 24 hours

 ConditionsComfort  
Time TempWeatherWind HumidityBarometerVisibility
6:30 PM
Mon, Jul 6
86 °FPassing clouds.6 mph31%29.86 "HgN/A
6:00 PM88 °FPassing clouds.8 mph29%29.86 "HgN/A
5:30 PM88 °FPassing clouds.6 mph29%29.86 "HgN/A
5:00 PM88 °FPassing clouds.6 mph29%29.89 "HgN/A
4:30 PM88 °FPassing clouds.8 mph29%29.89 "HgN/A
4:00 PM86 °FPassing clouds.8 mph31%29.92 "HgN/A
3:30 PM88 °FSunny.3 mph27%29.92 "Hg10 mi
3:00 PM86 °FPassing clouds.6 mph29%29.92 "HgN/A
2:30 PM84 °FBroken clouds.10 mph31%29.95 "HgN/A
2:00 PM86 °FBroken clouds.8 mph31%29.95 "HgN/A
1:30 PM86 °FBroken clouds.3 mph29%29.95 "HgN/A
1:00 PM84 °FScattered clouds.6 mph33%29.98 "HgN/A
12:30 PM82 °FScattered clouds.6 mph32%29.98 "HgN/A
12:00 PM82 °FScattered clouds.3 mph32%29.98 "HgN/A
11:30 AM81 °FScattered clouds.6 mph34%29.98 "HgN/A
11:00 AM81 °FPassing clouds.6 mph37%30.01 "HgN/A
10:30 AM79 °FSunny.3 mph37%30.01 "Hg10 mi
10:00 AM79 °FSunny.3 mph37%30.01 "Hg10 mi
9:30 AM77 °FPassing clouds.3 mph42%30.01 "HgN/A
9:00 AM75 °FPassing clouds.3 mph44%30.01 "HgN/A
8:30 AM73 °FSunny.6 mph47%30.01 "Hg10 mi
8:00 AM72 °FSunny.1 mph50%30.01 "Hg10 mi
7:30 AM70 °FSunny.No wind57%30.01 "Hg10 mi
7:00 AM66 °FSunny.No wind64%30.01 "Hg10 mi
6:30 AM63 °FSunny.No wind77%30.01 "Hg10 mi
6:00 AM59 °FSunny.No wind82%30.01 "Hg10 mi
5:30 AM57 °FClear.No wind88%30.01 "Hg10 mi
5:00 AM57 °FClear.No wind88%30.01 "Hg10 mi
4:30 AM57 °FClear.No wind88%30.01 "Hg10 mi
4:00 AM57 °FClear.No wind88%30.01 "Hg10 mi
3:30 AM57 °FClear.No wind88%30.01 "Hg10 mi
3:00 AM59 °FClear.No wind82%30.01 "Hg10 mi
2:30 AM59 °FClear.No wind88%30.01 "Hg10 mi
2:00 AM61 °FClear.No wind83%30.01 "Hg10 mi
1:30 AM63 °FClear.No wind77%30.01 "Hg10 mi
1:00 AM63 °FClear.No wind77%30.01 "Hg10 mi
12:30 AM66 °FClear.1 mph68%30.01 "Hg10 mi
12:00 AM66 °FClear.No wind68%30.01 "Hg10 mi
11:30 PM
Sun, Jul 5
68 °FClear.No wind64%30.01 "Hg10 mi
11:00 PM70 °FClear.3 mph60%30.01 "Hg10 mi
10:30 PM72 °FSunny.3 mph57%30.01 "Hg10 mi
10:00 PM73 °FSunny.3 mph53%29.98 "Hg10 mi
9:30 PM75 °FPassing clouds.3 mph47%29.98 "HgN/A
9:00 PM79 °FSunny.6 mph39%29.98 "Hg10 mi
8:30 PM81 °FSunny.8 mph37%29.98 "Hg10 mi
8:00 PM82 °FSunny.10 mph32%29.98 "Hg10 mi
7:30 PM82 °FSunny.10 mph32%29.98 "Hg10 mi
7:00 PM84 °FSunny.10 mph31%29.98 "Hg10 mi
Weather by CustomWeather, © 2015

See weather overviewHow to use our weather pages